User: anonymous   Login
Location: Unspecified
(0.0000°N, 0.0000°E)
Time: 23:32:05
(UTC+00:00)
Language:

BEESAT - Orbit

View from above orbital plane
View from above orbital plane
View from above satellite
View from above satellite

Ground track
Ground track

The orbit is defined by the following mean orbital elements,

1 35933U          26145.17756527 +.00000000 +00000-0 +15561-3 0 00005
2 35933  98.3981  52.3476 0004240 310.2632  49.8197 14.61676163    06
Epoch (UTC): 25 May 2026 04:15:41
Eccentricity: 0.0004240
inclination: 98.3981°
perigee height: 685 km
apogee height: 691 km
right ascension of ascending node: 52.3476°
argument of perigee: 310.2632°
revolutions per day: 14.61676163
mean anomaly at epoch: 49.8197°

The dashed part of the orbit path shows where the satellite is in the earth's shadow,  

DLR